Stations météo

réclame
Mon MeteoGroup
Llerena, Espagne (8336): Température de l'air & dewpoint: 17.01.2018 08:00:00 - 23.01.2018 08:00:00 (CET)Llerena, Espagne (8336): Vitesse du vent & gusts: 17.01.2018 08:00:00 - 23.01.2018 08:00:00 (CET)Llerena, Espagne (8336): Direction du vent: 17.01.2018 08:00:00 - 23.01.2018 08:00:00 (CET)Llerena, Espagne (8336): reduced air pressure: 17.01.2018 08:00:00 - 23.01.2018 08:00:00 (CET)Llerena, Espagne (8336): visibility: 17.01.2018 08:00:00 - 23.01.2018 08:00:00 (CET)Llerena, Espagne (8336): Ensoleillement: 17.01.2018 08:00:00 - 23.01.2018 08:00:00 (CET)Llerena, Espagne (8336): Quantités de précipitations: 17.01.2018 08:00:00 - 23.01.2018 08:00:00 (CET)
Date & Time tt [°C] td [°C] ff [km/h] ff [knt] fx [km/h] fx [knt] dd ppp [hPa] vv [km] sd [min] rr [mm]
23.01.2018 08:00:00 1,8 1,3 6 3 13 7 E 1030,0 3,6 0 0,2
23.01.2018 07:00:00 2,4 1,9 9 5 12 7 E 1029,9 0,2 0 -
23.01.2018 06:00:00 4,9 4,3 6 3 16 9 ENE 1029,3 8 0 0,0
23.01.2018 05:00:00 5,7 5,1 4 2 17 9 ENE - - 0 0,0
23.01.2018 04:00:00 6,8 6,2 4 2 20 11 ENE 1029,0 0,2 0 0,0
23.01.2018 03:00:00 7,2 6,4 8 5 19 10 E 1029,1 1,5 0 0,0
23.01.2018 02:00:00 7,4 6,5 4 2 18 10 E 1029,2 5 0 0,0
23.01.2018 01:00:00 7,7 6,7 3 2 18 10 NE 1029,8 12 0 -
23.01.2018 00:00:00 7,5 6,5 5 3 22 12 NNW 1030,1 15 0 0,0
22.01.2018 23:00:00 6,7 5,3 3 2 19 11 WNW 1030,3 18 0 0,0
22.01.2018 22:00:00 6,7 5,6 4 2 11 6 NW 1030,1 20 0 0,0
22.01.2018 21:00:00 6,3 5,5 3 2 19 10 W 1030,3 0,2 0 0,0
22.01.2018 20:00:00 7,9 6,4 7 4 11 6 NW 1029,5 20 0 0,0
22.01.2018 19:00:00 9,0 7,4 5 3 25 14 N 1029,2 8 17 -
22.01.2018 18:00:00 11,6 8,7 11 6 24 13 N 1028,2 20 60 0,0
22.01.2018 17:00:00 13,2 9,0 8 5 28 15 N 1027,6 20 60 0,0
22.01.2018 16:00:00 14,2 8,1 14 8 24 13 N 1027,2 20 60 0,0
22.01.2018 15:00:00 14,2 8,4 12 7 23 12 N 1027,4 20 60 0,0
22.01.2018 14:00:00 14,0 8,1 10 5 19 10 N 1027,9 20 60 0,0
22.01.2018 13:00:00 13,5 8,8 6 4 18 10 N 1028,8 20 60 -
22.01.2018 12:00:00 12,8 7,8 1 1 11 6 N 1029,5 20 60 0,0
22.01.2018 11:00:00 9,1 8,7 4 2 16 9 WNW 1030,8 20 60 0,0
22.01.2018 10:00:00 5,3 4,8 5 3 14 7 WNW 1031,7 0,3 16 0,0
22.01.2018 09:00:00 5,1 4,5 5 3 18 10 NNW 1031,7 0,2 0 0,0
22.01.2018 08:00:00 6,6 5,9 5 3 21 11 NE 1030,8 1,6 0 0,0
22.01.2018 07:00:00 5,6 5,0 6 3 18 10 E 1030,9 0,3 0 -
22.01.2018 06:00:00 6,3 5,8 4 2 17 9 ENE 1030,6 0,4 0 0,2
22.01.2018 05:00:00 7,3 6,7 5 3 15 8 N 1030,4 0,1 0 0,0
22.01.2018 04:00:00 8,1 7,5 3 1 10 5 NE - - 0 0,0
22.01.2018 03:00:00 7,9 7,3 2 1 11 6 W 1030,9 13 0 0,0
22.01.2018 02:00:00 8,2 7,4 6 3 8 5 WNW 1031,1 0,2 0 0,0
22.01.2018 01:00:00 8,8 8,0 3 1 23 13 N 1031,4 0,3 0 -
22.01.2018 00:00:00 8,8 7,8 6 3 19 10 N 1031,7 16 0 0,0
21.01.2018 23:00:00 7,8 6,4 5 3 7 4 ESE 1032,2 18 0 0,0
21.01.2018 22:00:00 8,4 6,8 2 1 13 7 E 1031,9 20 0 0,0
21.01.2018 21:00:00 8,7 7,0 6 3 18 10 NW 1031,7 20 0 0,0
21.01.2018 20:00:00 9,1 6,8 9 5 16 8 NNW 1031,5 20 0 0,0
21.01.2018 19:00:00 10,2 7,1 5 3 26 14 NNW 1030,6 20 18 -
21.01.2018 18:00:00 12,1 7,6 13 7 30 16 NNW 1029,7 20 60 0,0
21.01.2018 17:00:00 13,3 7,6 17 9 31 17 NNW 1029,5 20 60 0,0
21.01.2018 16:00:00 13,5 7,4 14 8 29 16 N 1029,5 20 60 0,0
21.01.2018 15:00:00 13,1 8,0 15 8 29 16 NNW 1029,8 20 60 0,0
21.01.2018 14:00:00 12,3 7,6 15 8 29 16 N 1030,7 20 60 0,0
21.01.2018 13:00:00 11,4 7,0 15 8 31 17 N 1031,7 20 60 -
21.01.2018 12:00:00 10,8 7,1 10 6 24 13 NNW 1032,2 20 60 0,0
21.01.2018 11:00:00 9,4 6,5 10 6 21 11 NW 1032,5 20 60 0,0
21.01.2018 10:00:00 7,2 5,3 12 6 20 11 NW 1032,5 20 60 0,0
21.01.2018 09:00:00 5,0 3,8 5 3 12 6 WNW 1032,6 19 14 0,0
21.01.2018 08:00:00 4,7 3,4 5 3 13 7 W 1032,0 20 0 0,0
21.01.2018 07:00:00 5,5 3,8 10 5 15 8 NW 1031,6 20 0 -
21.01.2018 06:00:00 5,5 3,8 5 3 17 9 W 1031,5 20 0 0,0
21.01.2018 05:00:00 5,8 4,1 11 6 18 10 NW 1031,3 20 0 0,0
21.01.2018 04:00:00 5,9 3,9 6 4 17 9 W 1031,8 20 0 0,0
21.01.2018 03:00:00 6,6 4,1 11 6 17 9 W 1031,6 20 0 0,0
21.01.2018 02:00:00 6,7 3,4 9 5 15 8 W 1031,8 20 0 0,0
21.01.2018 01:00:00 - - - - - - - - - - -
21.01.2018 00:00:00 6,6 2,7 4 2 15 8 W 1032,2 20 0 0,0
20.01.2018 23:00:00 7,2 2,5 10 6 16 9 NW 1031,5 20 0 0,0
20.01.2018 22:00:00 7,8 3,4 8 5 16 9 WNW 1031,3 20 0 0,0
20.01.2018 21:00:00 8,9 2,9 11 6 21 11 W 1030,7 20 0 0,0
20.01.2018 20:00:00 9,6 2,7 14 8 20 11 W 1030,3 20 0 0,0
20.01.2018 19:00:00 10,9 3,6 12 7 26 14 WNW 1029,5 20 14 -
20.01.2018 18:00:00 14,1 1,7 14 8 22 12 WNW 1028,2 20 60 0,0
20.01.2018 17:00:00 15,8 1,1 16 9 30 16 WNW 1027,4 20 60 0,0
20.01.2018 16:00:00 15,6 -0,3 16 9 28 15 N 1027,5 20 60 0,0
20.01.2018 15:00:00 15,0 1,1 12 7 23 12 NW 1027,8 20 40 0,0
20.01.2018 14:00:00 15,2 -0,5 16 8 29 16 N 1028,4 20 50 0,0
20.01.2018 13:00:00 14,4 0,0 10 5 19 10 N 1029,1 20 60 -
20.01.2018 12:00:00 12,9 4,3 4 2 13 7 NW 1029,7 20 60 0,0
20.01.2018 11:00:00 11,4 4,6 2 1 10 6 W 1030,0 20 60 0,0
20.01.2018 10:00:00 8,2 3,9 5 3 16 9 NNW 1030,4 20 60 0,0
20.01.2018 09:00:00 5,6 2,7 4 2 19 10 N 1030,3 20 1 0,0
20.01.2018 08:00:00 5,1 2,5 4 2 18 10 N 1029,9 20 0 0,0
20.01.2018 07:00:00 5,3 2,3 6 3 16 8 NNW 1029,2 20 0 -
20.01.2018 06:00:00 5,6 2,5 9 5 15 8 NNW 1028,7 20 0 0,0
20.01.2018 05:00:00 6,1 2,3 2 1 19 10 NW 1028,1 20 0 0,0
20.01.2018 04:00:00 7,0 2,3 4 2 19 10 ENE 1027,6 20 0 0,0
20.01.2018 03:00:00 7,5 2,7 5 3 20 11 NW 1027,8 20 0 0,0
20.01.2018 02:00:00 7,8 2,9 8 4 14 7 WNW 1027,3 20 0 0,0
20.01.2018 01:00:00 - - - - - - - - - - -
20.01.2018 00:00:00 8,3 3,6 9 5 16 8 WNW 1027,3 20 0 0,0
19.01.2018 23:00:00 8,6 3,8 8 4 25 14 E 1027,0 20 0 0,0
19.01.2018 22:00:00 8,9 4,3 10 5 24 13 NNW 1026,6 20 0 0,0
19.01.2018 21:00:00 8,6 3,9 5 3 16 9 WNW 1026,0 20 0 0,0
19.01.2018 20:00:00 9,2 4,6 8 4 18 10 NW 1025,3 20 0 0,0
19.01.2018 19:00:00 10,1 4,8 12 7 30 16 NNW 1024,3 20 17 -
19.01.2018 18:00:00 12,9 5,3 14 7 28 15 N 1022,6 20 60 0,0
19.01.2018 17:00:00 14,5 4,5 12 6 24 13 N 1021,3 20 60 0,0
19.01.2018 16:00:00 14,2 5,3 10 6 27 15 N 1021,1 20 60 0,0
19.01.2018 15:00:00 13,5 5,5 9 5 28 15 NNE 1021,1 20 60 0,0
19.01.2018 14:00:00 12,7 5,6 9 5 33 18 N 1021,6 20 60 0,0
19.01.2018 13:00:00 11,1 5,5 18 10 36 19 N 1022,5 20 60 -
19.01.2018 12:00:00 10,7 4,6 4 2 19 10 N 1022,2 20 60 0,0
19.01.2018 11:00:00 9,2 3,4 7 4 18 10 ENE 1022,0 20 60 0,0
19.01.2018 10:00:00 5,9 2,5 8 4 16 9 ENE 1022,5 20 26 0,0
19.01.2018 09:00:00 5,2 1,9 5 3 17 9 NNE 1022,0 20 0 0,0
19.01.2018 08:00:00 5,0 1,9 5 3 19 10 NE 1021,6 20 0 0,0
19.01.2018 07:00:00 5,1 2,1 7 4 17 9 N 1021,2 20 0 -
19.01.2018 06:00:00 5,5 2,1 7 4 15 8 NE 1020,8 20 0 0,0
19.01.2018 05:00:00 5,7 2,1 4 2 8 4 SSE 1020,9 20 0 0,0
19.01.2018 04:00:00 6,9 2,9 2 1 19 10 S 1020,7 20 0 0,0
19.01.2018 03:00:00 7,4 2,9 5 3 19 11 E 1020,7 20 0 0,0
19.01.2018 02:00:00 6,9 3,0 4 2 18 10 E 1020,9 20 0 0,0
19.01.2018 01:00:00 7,1 3,0 5 3 21 12 E 1021,6 20 0 -
19.01.2018 00:00:00 7,7 3,6 6 4 22 12 ENE 1021,2 20 0 0,0
18.01.2018 23:00:00 7,2 3,6 6 3 23 12 E 1021,4 20 0 0,0
18.01.2018 22:00:00 7,8 3,9 6 3 20 11 NE 1021,2 20 0 0,0
18.01.2018 21:00:00 8,0 4,3 4 2 17 9 ENE 1021,2 20 0 0,0
18.01.2018 20:00:00 9,0 4,6 1 1 10 5 ESE 1021,4 20 0 0,0
18.01.2018 19:00:00 10,2 5,1 3 1 15 8 E 1021,0 20 0 -
18.01.2018 18:00:00 12,1 7,0 5 3 26 14 NE 1020,5 20 35 0,0
18.01.2018 17:00:00 13,3 6,2 11 6 27 15 N 1019,8 20 60 0,0
18.01.2018 16:00:00 14,9 5,6 10 6 30 16 NNE 1019,4 20 60 0,0
18.01.2018 15:00:00 14,7 4,1 10 5 31 17 NE 1019,6 20 60 0,0
18.01.2018 14:00:00 14,1 5,1 12 7 30 16 E 1020,7 20 60 0,0
18.01.2018 13:00:00 12,8 4,5 12 6 32 17 E 1022,1 20 60 -
18.01.2018 12:00:00 11,8 4,3 25 14 31 17 E 1023,1 20 60 0,0
18.01.2018 11:00:00 9,3 3,8 13 7 29 16 E 1023,7 20 60 0,0
18.01.2018 10:00:00 7,7 2,1 16 9 28 15 E 1023,8 20 60 0,0
18.01.2018 09:00:00 5,4 1,3 18 10 28 15 ESE 1024,2 20 14 0,0
18.01.2018 08:00:00 5,0 1,1 15 8 26 14 ESE 1024,1 20 0 0,0
18.01.2018 07:00:00 5,8 1,5 17 9 27 15 ESE 1023,6 20 0 -
18.01.2018 06:00:00 6,2 1,9 19 10 28 15 ESE 1023,5 20 0 0,0
18.01.2018 05:00:00 6,3 2,5 19 11 31 17 ESE 1023,7 20 0 0,0
18.01.2018 04:00:00 6,2 3,6 22 12 30 16 ESE 1024,0 20 0 0,0
18.01.2018 03:00:00 6,9 4,1 22 12 29 16 ESE 1024,2 20 0 0,0
18.01.2018 02:00:00 7,4 4,1 17 9 29 16 E 1024,4 20 0 0,0
18.01.2018 01:00:00 7,1 4,6 19 10 29 16 E 1025,0 20 0 -
18.01.2018 00:00:00 7,6 5,1 17 9 29 15 E 1025,0 20 0 0,0
17.01.2018 23:00:00 7,2 5,3 20 11 29 16 E 1025,2 20 0 0,0
17.01.2018 22:00:00 7,1 6,2 17 9 27 15 E 1025,3 18 0 0,0
17.01.2018 21:00:00 7,5 6,4 12 6 22 12 ENE 1025,1 13 0 0,0
17.01.2018 20:00:00 8,6 7,3 11 6 28 15 NE 1024,9 20 0 0,0
17.01.2018 19:00:00 9,7 7,8 10 6 23 12 NE 1024,6 20 16 -
17.01.2018 18:00:00 11,1 8,3 9 5 28 15 NE 1024,2 20 60 0,0
17.01.2018 17:00:00 11,9 8,1 11 6 33 18 NE 1024,1 20 60 0,0
17.01.2018 16:00:00 12,0 8,8 11 6 33 18 NNE 1024,0 20 60 0,0
17.01.2018 15:00:00 11,4 8,7 11 6 35 19 NNE 1024,5 20 41 0,0
17.01.2018 14:00:00 10,3 8,5 10 6 29 15 NE 1025,1 20 18 0,0
17.01.2018 13:00:00 8,4 8,0 9 5 24 13 NE 1026,7 20 2 -
17.01.2018 12:00:00 7,5 7,0 9 5 23 13 NNE 1027,7 20 0 0,0
17.01.2018 11:00:00 7,2 6,8 11 6 22 12 N - - 0 0,0
17.01.2018 10:00:00 7,0 6,5 9 5 21 12 NNE 1027,2 0,6 0 0,0
17.01.2018 09:00:00 7,0 6,5 10 5 23 13 N 1027,2 0,4 0 0,0
17.01.2018 08:00:00 7,3 6,8 11 6 28 15 N 1027,2 0,4 0 0,0

tt = Température de l'air
td = dewpoint
ff = Vitesse du vent
fx = gusts
dd = Direction du vent
ppp = reduced air pressure
vv = visibility
sd = Ensoleillement
rr = Quantités de précipitations

stations d'obs. à proximité